Regional Weather Roundup
Issued by NWS

Home | Current Version | Previous Version | Text Only | Print | Product List | Glossary Off
Versions: 1 2 3 4 5 6 7 8 9 10 11 12 13 14 15 16 17 18 19 20 21 22 23 24 25 26 27 28 29 30 31 32 33 34 35 36 37 38 39 40 41 42 43 44 45 46 47 48 49 50

000
ASUS43 KLOT 251108
RWRIL

ILLINOIS REGIONAL WEATHER ROUNDUP
NATIONAL WEATHER SERVICE CHICAGO/ROMEOVILLE IL
600 AM CDT WED APR 25 2018

NOTE: "FAIR" INDICATES FEW OR NO CLOUDS BELOW 12,000 FEET WITH NO
SIGNIFICANT WEATHER AND/OR OBSTRUCTIONS TO VISIBILITY.

* THESE STATIONS ARE NOT UNDER NWS QUALITY CONTROL. THEY ALSO MAY NOT
  REPORT WEATHER SUCH AS PRECIPITATION OR FOG.

ILZ001-002-007-009-015-016-024-251200-
NORTHWEST ILLINOIS

CITY           SKY/WX    TMP DP  RH WIND       PRES   REMARKS
MOLINE         CLOUDY    50  33  52 NE14      30.10R
STERLING*      FAIR      44  34  67 NE8       30.10S
SAVANNA*       FAIR      46  32  58 NE10      30.11S
$$

ILZ003-004-008-010-011-017-018-251200-
NORTH CENTRAL ILLINOIS

CITY           SKY/WX    TMP DP  RH WIND       PRES   REMARKS
ROCKFORD       FAIR      42  32  67 NE10      30.13R
FREEPORT*      FAIR      40  31  71 N10       30.14S
ROCHELLE*      FAIR      42  32  69 N9        30.11R
DE KALB*       FAIR      42  32  69 N14       30.09S
PERU*          FAIR      46  34  61 NE15      30.09R
$$

ILZ005-006-012>014-019>023-251200-
NORTHEAST ILLINOIS

CITY           SKY/WX    TMP DP  RH WIND       PRES   REMARKS
CHICAGO-OHARE  MOCLDY    43  31  62 N16       30.08R
CHICAGO-MIDWAY MOCLDY    43  33  68 N13G24    30.07R
AURORA         FAIR      43  33  68 N10       30.08R
LANSING*       CLOUDY    42  35  76 N12G25    30.06R
JOLIET*        FAIR      46  32  57 N13G21    30.07R
WAUKEGAN       FAIR      41  33  73 N13       30.09R
DUPAGE AIRPORT FAIR      42  33  70 N16       30.07R
KANKAKEE*      FAIR      43  34  70 N9        30.06R
WHEELING       FAIR      44  32  62 N8        30.10R
MORRIS*        FAIR      42  32  68 N3        30.07R
ROMEOVILLE*    FAIR      44  32  63 NE16      30.07R
NORTHERLY ISL    N/A     41  34  76 N25         N/A
$$

LMZ740>746-251200-
SOUTHERN LAKE MICHIGAN

STATION/POSITION SKY/WX   TEMP    WIND        PRES    VSBY  WAVE
                          AIR SEA DIR/SP/G                  HT/PER
                          (F)     (DEG/KT/KT) (MB)    (MI)  (FT/S)
HARRISON CRIB              41     350/ 22/ 25   N/A
BURNHAM HARBOR             40     340/ 24/ 24   N/A
CALUMET HARBOR             40     330/ 18/ 24 1017.5R
BURNS HARBOR               41     360/  9/ 10 1018.3R
MICHIGAN CITY              41     350/ 12/ 16   N/A
ST. JOSEPH                 42 42   10/ 17/ 21 1017.3          4/ 5
$$

ILZ025>027-034>036-040-047-049-050-058-095>099-251200-
WEST-CENTRAL ILLINOIS

CITY           SKY/WX    TMP DP  RH WIND       PRES   REMARKS
QUINCY         PTCLDY    52  39  61 N12       30.04R
GALESBURG*     FAIR      48  38  66 NE16      30.09R
MACOMB*        CLOUDY    49  44  84 NE10      30.08R
JACKSONVILLE*  CLOUDY    47  39  75 NW8       30.02R
PITTSFIELD*    MOCLDY    53  43  67 NW9       30.04R
$$

ILZ028>032-037-038-041>044-048-051>054-059>061-251200-
CENTRAL ILLINOIS

CITY           SKY/WX    TMP DP  RH WIND       PRES   REMARKS
PONTIAC        CLOUDY    45  38  77 N12       30.07R
BLOOMINGTON    FAIR      45  43  93 N12       30.05R
DECATUR        FAIR      46  46 100 NE12      30.02R FOG
PEORIA         FAIR      48  39  71 NE16      30.06R
LACON*         FAIR      44  32  61 NE8       30.08R
LINCOLN*       FAIR      49  48  98 NE12      30.03R FOG
SPRINGFIELD    FAIR      51  49  92 E13       30.02R FOG
TAYLORVILLE    FAIR      48  48  99 NE14      30.02R FOG
$$

ILZ033-039-045-046-055>057-062-063-251200-
EAST-CENTRAL ILLINOIS

CITY           SKY/WX    TMP DP  RH WIND       PRES   REMARKS
CHAMPAIGN      FAIR      46  45  96 N12       30.03R FOG
DANVILLE*      CLOUDY    45  45 100 N13       29.99R FOG
RANTOUL*       FAIR      47  45  93 N14       30.02R
MATTOON        FAIR      45  45 100 N8        30.00R FOG
PARIS*         FAIR      46  46  99 N6        30.02R FOG
$$

ILZ079-100>102-251200-
SOUTHWEST ILLINOIS

CITY           SKY/WX    TMP DP  RH WIND       PRES   REMARKS
ALTON          MOCLDY    41  41  97 NW5       30.01R
BELLEVILLE     CLEAR     42  42  99 CALM      29.98S
CAHOKIA*       CLEAR     42  40  92 CALM      30.00R
SPARTA*        CLEAR     47  47 100 W3        30.01R
$$

ILZ064>066-069>071-074>076-080>082-084>086-088>090-092>094-251200-
SOUTH-CENTRAL ILLINOIS

CITY           SKY/WX    TMP DP  RH WIND       PRES   REMARKS
CARBONDALE     FAIR      44  43  96 W3        29.99R FOG
CAIRO*         FOG       47  47 100 CALM      30.00R VSB 1/4
EFFINGHAM*     FAIR      49  49 100 N3        30.02R FOG
MARION         FOG      N/A N/A N/A CALM      29.99S VSB 1/2
MT. VERNON     FAIR      42  42 100 CALM      29.98F FOG
CENTRALIA*     FOG       49  49 100 CALM      29.98S VSB 3/4
SALEM*         FOG       49  48  95 CALM      29.99R VSB 1/4
METROPOLIS*    FOG       49  49  99 CALM      30.00S VSB 3/4
$$

ILZ067-068-072-073-078-083-087-091-251200-
SOUTHEAST ILLINOIS

CITY           SKY/WX    TMP DP  RH WIND       PRES   REMARKS
LAWRENCEVILLE  FAIR      47  47 100 MISG      30.00R FOG
FLORA*         FAIR      50  49  97 N5        30.00R FOG
FAIRFIELD*     FAIR      44  44 100 CALM      29.99R FOG
HARRISBURG*    FOG       48  48 100 CALM      29.99S VSB 1/2
ROBINSON*      FAIR      46  46 100 NW6       30.01R FOG
CARMI*           N/A     48  48 100 CALM      29.99R FOG
$$

ABBREVIATIONS USED IN REMARKS
   TC - TEMPERATURE IN CELSIUS
  WCI - WIND CHILL INDEX
   HX - HEAT INDEX
  VSB - VISIBILITY
$$





USA.gov is the U.S. government's official web portal to all federal, state and local government web resources and services.